EW0706 Weather Reports


Display with metric or nautical units.
time (UTC)temp
F
wind
direction
speed
MPH
gust
MPH
rain 1hr
in
rain 24hr
in
rain mn
in
humidity
%
barometer
mb
20260503044233 82 0.0 0.0 0.00 0.00 0.00 16 1009.0
20260503043232 83 0.0 0.0 0.00 0.00 0.00 16 1008.7
20260503042231 83 0.0 0.0 0.00 0.00 0.00 16 1008.7
20260503041230 83 0.0 0.0 0.00 0.00 0.00 16 1008.7
20260503040229 84 0.0 0.0 0.00 0.00 0.00 16 1008.3
20260503035228 84 0.0 0.0 0.00 0.00 0.00 15 1008.3
20260503034227 84 0.0 0.0 0.00 0.00 0.00 15 1008.3
20260503033226 85 0.0 0.0 0.00 0.00 0.00 15 1008.3
20260503032225 85 0.0 0.0 0.00 0.00 0.00 15 1008.3
20260503031224 85 0.0 0.0 0.00 0.00 0.00 15 1008.0
20260503030224 86 0.0 0.0 0.00 0.00 0.00 15 1008.0
20260503025223 87 0.0 0.0 0.00 0.00 0.00 14 1008.0
20260503024150 88 0.0 0.0 0.00 0.00 0.00 14 1008.0
20260503023117 89 0.0 0.0 0.00 0.00 0.00 14 1008.0
20260503022116 89 0.0 0.0 0.00 0.00 0.00 13 1008.0
20260503021115 90 0.0 0.0 0.00 0.00 0.00 12 1008.0
20260503020114 91 0.0 0.0 0.00 0.00 0.00 12 1008.0
20260503015112 91 0.0 0.0 0.00 0.00 0.00 12 1007.9
20260503014111 92 0.0 0.0 0.00 0.00 0.00 12 1007.9
20260503013110 92 0.0 0.0 0.00 0.00 0.00 12 1008.3
20260503012007 92 0.0 0.0 0.00 0.00 0.00 12 1008.2
20260503011006 93 0.0 0.0 0.00 0.00 0.00 12 1008.2
20260503005717 93 0.0 0.0 0.00 0.00 0.00 12 1008.3
20260503004716 93 0.0 0.0 0.00 0.00 0.00 12 1008.3
20260503003715 94 0.0 0.0 0.00 0.00 0.00 12 1008.2
20260503002714 94 0.0 0.0 0.00 0.00 0.00 12 1008.2
20260503001713 95 0.0 0.0 0.00 0.00 0.00 12 1008.3
20260503000713 95 0.0 0.0 0.00 0.00 0.00 12 1008.3
20260502235711 95 0.0 0.0 0.00 0.00 0.00 12 1008.3
20260502232028 96 0.0 0.0 0.00 0.00 0.00 12 1008.8
20260502231026 96 0.0 0.0 0.00 0.00 0.00 12 1008.8
20260502225955 95 0.0 0.0 0.00 0.00 0.00 12 1008.7
20260502224954 95 0.0 0.0 0.00 0.00 0.00 12 1008.7
20260502223953 96 0.0 0.0 0.00 0.00 0.00 12 1009.1
20260502222951 95 0.0 0.0 0.00 0.00 0.00 12 1009.1
20260502221950 95 0.0 0.0 0.00 0.00 0.00 12 1009.4
20260502220948 95 0.0 0.0 0.00 0.00 0.00 12 1009.4
20260502215947 95 0.0 0.0 0.00 0.00 0.00 12 1009.4
20260502214915 95 0.0 0.0 0.00 0.00 0.00 12 1009.7
20260502213915 95 0.0 0.0 0.00 0.00 0.00 12 1010.1
20260502212913 94 0.0 0.0 0.00 0.00 0.00 12 1010.1
20260502211912 94 0.0 0.0 0.00 0.00 0.00 12 1010.1
20260502210912 94 0.0 0.0 0.00 0.00 0.00 12 1010.4
20260502205910 93 0.0 0.0 0.00 0.00 0.00 12 1010.4
20260502204909 94 0.0 0.0 0.00 0.00 0.00 12 1010.8
20260502203909 94 0.0 0.0 0.00 0.00 0.00 14 1010.8
20260502202836 94 0.0 0.0 0.00 0.00 0.00 15 1011.2
20260502201835 94 0.0 0.0 0.00 0.00 0.00 15 1011.1
20260502200835 94 0.0 0.0 0.00 0.00 0.00 16 1011.1
20260502195834 93 0.0 0.0 0.00 0.00 0.00 16 1011.1
20260502194833 93 0.0 0.0 0.00 0.00 0.00 16 1011.4
20260502193800 92 0.0 0.0 0.00 0.00 0.00 16 1011.5
20260502192758 92 0.0 0.0 0.00 0.00 0.00 17 1011.9
20260502191757 92 0.0 0.0 0.00 0.00 0.00 17 1011.9
20260502190756 91 0.0 0.0 0.00 0.00 0.00 17 1011.9
20260502185755 92 0.0 0.0 0.00 0.00 0.00 17 1012.2
20260502184754 91 0.0 0.0 0.00 0.00 0.00 19 1012.2
20260502183753 91 0.0 0.0 0.00 0.00 0.00 19 1012.5
20260502182751 90 0.0 0.0 0.00 0.00 0.00 20 1012.5
20260502181749 90 0.0 0.0 0.00 0.00 0.00 20 1012.8
20260502180748 90 0.0 0.0 0.00 0.00 0.00 20 1012.8
20260502163637 86 0.0 0.0 0.00 0.00 0.00 23 1013.1
20260502162636 86 0.0 0.0 0.00 0.00 0.00 24 1013.1
20260502161635 85 0.0 0.0 0.00 0.00 0.00 24 1013.1
20260502160635 85 0.0 0.0 0.00 0.00 0.00 24 1013.1
20260502151629 83 0.0 0.0 0.00 0.00 0.00 24 1012.7
20260502150556 82 0.0 0.0 0.00 0.00 0.00 23 1012.7
20260502130400 73 0.0 0.0 0.00 0.00 0.00 22 1010.8
20260502123325 72 0.0 0.0 0.00 0.00 0.00 23 1010.4
20260502122324 72 0.0 0.0 0.00 0.00 0.00 23 1010.4
20260502121323 72 0.0 0.0 0.00 0.00 0.00 22 1010.5
20260502120322 73 0.0 0.0 0.00 0.00 0.00 22 1010.5
20260502115320 74 0.0 0.0 0.00 0.00 0.00 22 1010.2
20260502114318 74 0.0 0.0 0.00 0.00 0.00 21 1010.2
20260502113306 75 0.0 0.0 0.00 0.00 0.00 21 1010.2
20260502112306 75 0.0 0.0 0.00 0.00 0.00 21 1010.2
20260502111304 75 0.0 0.0 0.00 0.00 0.00 21 1010.2
20260502110231 75 0.0 0.0 0.00 0.00 0.00 22 1010.2
20260502105230 74 0.0 0.0 0.00 0.00 0.00 22 1010.2
20260502104229 74 0.0 0.0 0.00 0.00 0.00 22 1010.2
20260502103228 74 0.0 0.0 0.00 0.00 0.00 22 1009.9
20260502102227 74 0.0 0.0 0.00 0.00 0.00 23 1009.8
20260502101226 74 0.0 0.0 0.00 0.00 0.00 23 1009.8
20260502100225 74 0.0 0.0 0.00 0.00 0.00 23 1009.8
20260502091221 75 0.0 0.0 0.00 0.00 0.00 22 1009.5
20260502090220 75 0.0 0.0 0.00 0.00 0.00 22 1009.5
20260502071138 80 0.0 0.0 0.00 0.00 0.00 16 1008.8
20260502070137 80 0.0 0.0 0.00 0.00 0.00 16 1008.9
20260502065136 80 0.0 0.0 0.00 0.00 0.00 16 1008.9
20260502064134 80 0.0 0.0 0.00 0.00 0.00 16 1008.8
20260502063102 80 0.0 0.0 0.00 0.00 0.00 16 1008.8
20260502062101 79 0.0 0.0 0.00 0.00 0.00 16 1008.8
20260502061100 79 0.0 0.0 0.00 0.00 0.00 17 1008.7
20260502060058 80 0.0 0.0 0.00 0.00 0.00 17 1008.7
20260502055027 82 0.0 0.0 0.00 0.00 0.00 16 1008.4
20260502054026 82 0.0 0.0 0.00 0.00 0.00 15 1008.4
20260502052953 81 0.0 0.0 0.00 0.00 0.00 16 1008.4
20260502051953 80 0.0 0.0 0.00 0.00 0.00 16 1008.4
20260502050952 81 0.0 0.0 0.00 0.00 0.00 16 1008.4
20260502045951 81 0.0 0.0 0.00 0.00 0.00 16 1008.4
20260502044950 82 0.0 0.0 0.00 0.00 0.00 15 1008.4